Newport News, VA

3:03 AM EST on December 11, 2017 (GMT -0500)
Newport News-Williamsburg International

Weather History for KPHF - November, 2012

Change the Weather History Date:

Thursday, November 8, 2012

  Actual Average Record
Temperature  
Mean Temperature 49 °F -  
Max Temperature 59 °F 63 °F 80 °F (1996)
Min Temperature 39 °F 47 °F 27 °F (1971)
Degree Days  
Heating Degree Days 16    
Moisture  
Dew Point 23 °F    
Average Humidity 46    
Maximum Humidity 81    
Minimum Humidity 14    
Precipitation  
Precipitation 0.00 in - - ()
Sea Level Pressure  
Sea Level Pressure 29.94 in    
Wind  
Wind Speed 9 mph (NW)    
Max Wind Speed 17 mph    
Max Gust Speed 23 mph    
Visibility 10 miles    
Events Rain    
Averages and records for this station are not official NWS values.
T = Trace of Precipitation, MM = Missing Value Source: NWS Daily Summary

Daily Weather History Graph

Daily Weather History Graph

Search for Another Location

Airport or City:

Trip Planner

Search our weather history database for the weather conditions in past years. The results will help you decide how hot, cold, wet, or windy it might be!

Date:

Astronomy

Nov. 08, 2012 Rise Set
Actual Time 6:37 AM EST 5:01 PM EST
Civil Twilight 6:10 AM EST 5:28 PM EST
Nautical Twilight 5:39 AM EST 5:59 PM EST
Astronomical Twilight 5:08 AM EST 6:30 PM EST
Moon 12:38 AM EST (11/8) 1:33 PM EST (11/8)
Length of Visible Light 11h 17m
Length of Day
10h 23m
Waning Crescent, 33% of the Moon is Illuminated
Nov 8
Waning Crescent
Nov 13
New
Nov 20
First Quarter
Nov 28
Full
Dec 6
Last Quarter

Hourly Weather History & Observations

Time (EST) Temp. Windchill Dew Point Humidity Pressure Visibility Wind Dir Wind Speed Gust Speed Precip Events Conditions
12:54 AM 42.1 °F 37.1 °F 35.1 °F 76% 29.90 in 9.0 mi NNW 8.1 mph - 0.00 in Rain Light Rain
1:46 AM 41.0 °F 35.8 °F 35.6 °F 81% 29.89 in 9.0 mi NW 8.1 mph - 0.00 in Rain Light Rain
1:54 AM 41.0 °F 35.8 °F 35.1 °F 79% 29.89 in 9.0 mi NW 8.1 mph - 0.00 in Rain Light Rain
2:54 AM 39.9 °F 33.9 °F 34.0 °F 79% 29.89 in 10.0 mi NW 9.2 mph - 0.00 in   Overcast
3:06 AM 39.2 °F 32.5 °F 33.8 °F 81% 29.89 in 10.0 mi NW 10.4 mph - N/A   Mostly Cloudy
3:32 AM 39.2 °F 33.0 °F 33.8 °F 81% 29.89 in 10.0 mi NW 9.2 mph - N/A   Mostly Cloudy
3:54 AM 41.0 °F 34.7 °F 33.1 °F 73% 29.90 in 10.0 mi NW 10.4 mph - N/A   Overcast
4:54 AM 41.0 °F 34.7 °F 32.0 °F 70% 29.91 in 10.0 mi NNW 10.4 mph 17.3 mph N/A   Mostly Cloudy
5:01 AM 41.0 °F 34.3 °F 32.0 °F 70% 29.91 in 10.0 mi NNW 11.5 mph - N/A   Mostly Cloudy
5:54 AM 41.0 °F 36.4 °F 30.0 °F 65% 29.92 in 10.0 mi NW 6.9 mph - N/A   Overcast
6:54 AM 41.0 °F 37.1 °F 28.9 °F 62% 29.94 in 10.0 mi NW 5.8 mph - N/A   Overcast
7:54 AM 44.1 °F 39.5 °F 27.0 °F 51% 29.96 in 10.0 mi WNW 8.1 mph - N/A   Overcast
8:54 AM 46.0 °F 40.6 °F 24.1 °F 42% 29.96 in 10.0 mi NW 11.5 mph - N/A   Overcast
9:54 AM 48.0 °F - 23.0 °F 37% 29.97 in 10.0 mi NW 11.5 mph - N/A   Overcast
10:54 AM 53.1 °F - 19.9 °F 27% 29.95 in 10.0 mi NW 9.2 mph 17.3 mph N/A   Clear
11:54 AM 57.2 °F - 17.6 °F 21% 29.93 in 10.0 mi NW 11.5 mph 20.7 mph N/A   Clear
12:54 PM 57.9 °F - 18.0 °F 21% 29.91 in 10.0 mi WNW 12.7 mph - N/A   Clear
1:54 PM 59.0 °F - 10.0 °F 14% 29.91 in 10.0 mi NW 17.3 mph 23.0 mph N/A   Clear
2:54 PM 57.9 °F - 10.9 °F 16% 29.90 in 10.0 mi WNW 13.8 mph 19.6 mph N/A   Clear
3:54 PM 57.9 °F - 10.0 °F 15% 29.91 in 10.0 mi NW 8.1 mph - N/A   Clear
4:54 PM 54.0 °F - 10.0 °F 17% 29.93 in 10.0 mi NW 5.8 mph - N/A   Clear
5:54 PM 51.1 °F - 12.0 °F 21% 29.96 in 10.0 mi NW 6.9 mph - N/A   Clear
6:54 PM 48.9 °F - 12.0 °F 23% 29.99 in 10.0 mi NNW 3.5 mph - N/A   Clear
7:54 PM 48.0 °F - 12.9 °F 24% 30.01 in 10.0 mi NNW 4.6 mph - N/A   Clear
8:54 PM 48.0 °F - 16.0 °F 28% 30.03 in 10.0 mi NW 8.1 mph - N/A   Clear
9:54 PM 46.0 °F 42.5 °F 18.0 °F 33% 30.04 in 10.0 mi NW 6.9 mph - N/A   Clear
10:54 PM 45.0 °F 41.2 °F 21.0 °F 39% 30.05 in 10.0 mi NW 6.9 mph - N/A   Clear
11:54 PM 45.0 °F 41.2 °F 23.0 °F 42% 30.06 in 10.0 mi NW 6.9 mph - N/A   Clear